Погода Красная Поляна

Погода Красная Поляна : погода сейчас, прогноз погоды и архив. Всё, что Вы хотите узнать о погоде Красная Поляна!

Поиск расширенной информации на нашем сайте:

Другие новости

Новости СМИ2

Главная страница сайта

Новости сайта

03.07.2017

Напоминаем, что на нашем специализированном сайте Метеоцентр.Азия вы можете получить высокодетализированные автоматические прогнозы погоды по пунктам России, СНГ и мира в авиационном формате (включающие направление и скорость ветра, видимость, явления погоды, количество и форму облачности, нижнюю и верхнюю границу облачности).


Погода Красная Поляна - сегодня

Время (UTC), дата Ветер
(°,м/с) 
Видим.   Явления Облачность Т
(°С)
Тd
(°С)
f(%) Тe
(°С)
Pmin
(гПа)
dP
(гПа)
Po
(мм)
O2
(г/м3)
Тmin Tmax R s Состояние
почвы
00 18.08.17 100 (В) 20000 м    3/0 средняя 
[Ac lent]
+15.9 +14.6 92 +26  1011.7  0.5  710  267           
03 18.08.17 020 (С) 20000 м    10/4 1500 м средняя, верхняя 
[Sc diur, vesp|Ac As|Cc]
+17.1 +14.2 83 +27  1011.7  0.3  710  266  +15.8    0.4    влажная 
06 18.08.17 180 (Ю) 20000 м    3/1 1500 м средняя 
[Cu hum|Ac cast]
+23.4 +15.7 62 +35  1010.8  0.5  711  260           
09 18.08.17 230 (ЮЗ) 20000 м    4/4 1500 м 
[Cu med, cong]
+28.8 +16.4 47 +42  1009.3  -0.3  711  255           
12 18.08.17 240 (ЮЗ) 20000 м  в посл. час гроза{ливн. осадки}  6/6 600 м кучево-дожд. 
[Cb calv]
+25.2 +20 73 +46  1010.8  0.8  711  257           
15 18.08.17 тихо ()   20000 м    3/3 1500 м 
[Cu hum]
+25.1 +20.1 74 +46  1010.3  -0.5  711  257    +30.1     
18 18.08.17 010 (С) 20000 м    ясно 
+21.1 +17.7 81 +37  1011.9  0.6  711  262           
21 18.08.17 360 (С) 20000 м    ясно 
+18.9 +16.5 86 +33  1013.2  0.7  712  265           
00 19.08.17 360 (С) 20000 м    ясно 
+18 +16.3 90 +32  1013.2  -0.2  712  265           
03 19.08.17 тихо ()   20000 м    6/0 средняя 
[Ac As]
+17.1 +15.6 91 +28  1013.5  0.1  712  266  +17        влажная 
06 19.08.17 220 (ЮЗ) 20000 м    8/3 1500 м средняя 
[Cu hum|Ac cast]
+23 +16.1 65 +35  1012.4  0.2  712  261           
09 19.08.17 200 (Ю) 20000 м    8/3 1000 м верхняя 
[Cu med, cong|Ci sp]
+29.6 +17.8 49 +45  1010.3  -0.6  711  255           
12 19.08.17 230 (ЮЗ) 20000 м  в посл. час гроза  6/6 1000 м кучево-дожд. 
[Cb cap]
+28.9 +18.4 53 +46  1010.8  0.4  712  255           
15 19.08.17 360 (С) 20000 м    4/3 1500 м средняя, верхняя 
[Cu med, cong|Ac cast|Ci sp]
+24.4 +15.6 58 +36  1012.6  0.7  712  260    +30.3       
18 19.08.17 020 (С) 20000 м    ясно 
+21.3 +14.2 64 +30  1013.8  0.4  713  263           
21 19.08.17 360 (С) 20000 м    ясно 
+18.6 +13.7 73 +28  1014.7  0.3  713  266           
00 20.08.17 100 (В) 20000 м    8/0 средняя 
[Ac As]
+17.5 +13.6 78 +27  1014.2  -0.7  712  267           
03 20.08.17 100 (В) 20000 м    8/0 средняя, верхняя 
[Ac cast|Ci sp]
+17 +13.9 82 +26  1014.3  712  267  +16.9        влажная 
06 20.08.17 220 (ЮЗ) 20000 м    10/8 1000 м кучево-дожд., верхняя 
[Cb calv|Ci fib]
+20.9 +15.7 72 +32  1013.3  -0.1  712  263           
09 20.08.17 120 (ЮВ) 19000 м  {ливн. осадки}  10/10 1500 м 
[Sc]
+24.9 +18.6 68 +42  1011.7  -0.6  712  258           
12 20.08.17 110 (В) 20000 м  {ливн. осадки}  8/8 1500 м 
[Cu Sc]
+29.6 +16.1 44 +42  1009.3  -1.4  711  255           
15 20.08.17 070 (В) 18000 м    1/1 1500 м 
[Sc]
+27.1 +17 54 +41  1009.3  -0.4  710  257    +30.5     
18 20.08.17 010 (С) 20000 м    ясно 
+22.5 +16.1 67 +35  1011.4  711  261           
21 20.08.17 040 (СВ) 20000 м    3/0 верхняя 
[Ci ing]
+19.7 +14.7 73 +31  1011.6  -0.5  711  264           
00 21.08.17 060 (СВ) 20000 м    ясно 
+17.9 +14.6 81 +28  1011.6  -0.3  711  266           
Время (UTC), дата Ветер
(°,м/с) 
Видим.   Явления Облачность Т
(°С)
Тd
(°С)
f(%) Тe
(°С)
Pmin
(гПа)
dP
(гПа)
Po
(мм)
O2
(г/м3)
Тmin Tmax R s Состояние
почвы

Для получения пояснительной информации подведите курсор к названию столбца.

ПОГОДА Красная Поляна - архив

Всё, что Вы хотите узнать о погоде Красная Поляна - удобно и подробно!

Выберите нужную дату (начиная с 1 января 2015* года) и нажмите кнопку "Найти".
Будут отображены архивные сводки погоды по пункту Красная Поляна, начиная с указанной даты.


Отображать данные в формате CSV (для использования в таблицах Excel)


Внимание! Наш архив погоды предназначен исключительно для личного некоммерческого использования в познавательных целях. Если Вам необходимы официальные справки о состоянии погоды (для производственных, юридических, коммерческих и т.п. целей), обращайтесь в органы Росгидромета.

*Примечание: данная дата относится к архиву по метеостанциям СССР (Россия, СНГ, Балтия).
Архив по метеостанциям Зарубежной Европы и Азии (кроме Китая) хранится 10 дней, по другим регионам земного шара (Китай, Африка, Америка, Австралия, Океания) - 1 день.

Красная Поляна - район местоположения метеостанции


Название, широта, долгота, высота метеостанции:
Красная Поляна 43.7°ш. 40.2°д. 568 м над ур. моря [Российская Федерация]

Дополнительная информация

В oтличие oт бoльшинства пoгoдных сайтoв мы публикуем пoдрoбную метеoинфoрмацию в детальнoм прoфессиoнальнoм фoрмате.

Характеристики температуры и влажнoсти вoздуха измеряются на высoте 2 м в тени вдали oт зданий и деревьев.
Скoрoсть ветра измеряется на высoте 10 м (на урoвне рoста челoвека скoрoсть ветра ниже в 1.5-2 раза). Если метеoстанция нахoдится в гoрoде или в лесу, тo скoрoсть ветра занижена на 2-4 м/с пo сравнению с oткрытым местoм. Скoрoсть ветра над акватoриями крупных рек и oзёр, а также на вершинах хoлмoв на 2-5 м/с выше, чем в oбычных услoвиях.
Атмoсфернoе давление в разных тoчках местнoсти мoжет значительнo oтличаться oт давления на метеoстанции, в зависимoсти oт услoвий рельефа (при пoдъёме на 10 м давление пoнижается примернo на 1 мм рт.ст.).